Location: Newark
(39.5222°N, 119.8081°W)
Time: 12:53:26
(UTC+00:00)

Starlink Launch 2 leader - Visible Passes

Search period start: 10 December 2019 00:00
Search period end: 20 December 2019 00:00
Orbit: 279 x 281 km, 53.0° (Epoch: 13 November)

Date Brightness Start Highest point End Pass type
(mag) Time Alt. Az. Time Alt. Az. Time Alt. Az.
10 Dec 6.1 12:53:01 11° E 12:53:01 11° E 12:53:08 10° E visible
10 Dec 4.1 14:23:09 12° W 14:24:40 19° SW 14:26:30 10° S visible
11 Dec 6.0 12:55:16 12° ESE 12:55:16 12° ESE 12:55:29 10° ESE visible
